Hourly Data Report for September 04, 2017

All times are specified in Local Standard Time (LST). Add 1 hour to adjust for Daylight Saving Time where and when it is observed.

CORAL HARBOUR A
NUNAVUT

64°11'36.000" N
83°21'34.000" W
62.20 m
2301002
71915
YZS

Download Data

Hourly Data (September 2017)
Hourly Data Report for September 4, 2017
Temp Definition
°C
Dew Point Temp Definition
°C
Rel Hum Definition
%
Wind Dir Definition
10's deg

Wind Spd Definition
km/h
Visibility Definition
km
Stn Press Definition
kPa
Hmdx Definition


Wind Chill Definition


Weather Definition


TIME
00:00 Legend Double Dagger 2.9 0.9 87 2 23 24.1 99.61     LegendNANA
01:00 Legend Double Dagger 2.9 0.6 85 3 35 24.1 99.59     Mostly Cloudy
02:00 Legend Double Dagger 2.4 0.1 85 3 39 24.1 99.59     LegendNANA
03:00 Legend Double Dagger 2.6 0.4 85 3 41 24.1 99.63     LegendNANA
04:00 Legend Double Dagger 2.1 -0.1 85 36 23 24.1 99.75     Mainly Clear
05:00 Legend Double Dagger 2.4 0.3 86 1 20 24.1 99.85     LegendNANA
06:00 Legend Double Dagger 2.9 1.1 88 3 32 24.1 99.90     LegendNANA
07:00 Legend Double Dagger 4.2 1.4 82 2 40 24.1 99.93     Mainly Clear
08:00 Legend Double Dagger 4.7 2.0 83 2 44 24.1 99.95     LegendNANA
09:00 Legend Double Dagger 5.9 2.2 77 2 39 24.1 99.97     LegendNANA
10:00 Legend Double Dagger 6.3 2.3 76 3 43 24.1 99.95     Clear
11:00 Legend Double Dagger 6.3 2.3 75 2 47 24.1 99.99     LegendNANA
12:00 Legend Double Dagger 7.2 3.5 77 2 31 24.1 100.08     LegendNANA
13:00 Legend Double Dagger 8.2 2.7 68 2 25 24.1 100.13     Clear
14:00 Legend Double Dagger 7.7 1.9 67 2 32 24.1 100.18     LegendNANA
15:00 Legend Double Dagger 7.4 1.5 66 3 33 24.1 100.24     LegendNANA
16:00 Legend Double Dagger 7.1 2.0 70 2 35 24.1 100.27     Mainly Clear
17:00 Legend Double Dagger 6.9 2.0 71 1 27 24.1 100.35     LegendNANA
18:00 Legend Double Dagger 6.1 1.4 72 1 28 24.1 100.38     LegendNANA
19:00 Legend Double Dagger 4.9 0.7 74 36 25 24.1 100.41     Mainly Clear
20:00 Legend Double Dagger 3.1 0.0 80 1 29 24.1 100.45     LegendNANA
21:00 Legend Double Dagger 1.2 -0.4 89 32 21 24.1 100.47     LegendNANA
22:00 Legend Double Dagger 0.5 -1.0 89 35 18 24.1 100.46     Mainly Clear
23:00 Legend Double Dagger 0.0 -1.3 91 36 12 24.1 100.47   -4 LegendNANA

Notes on Data Quality.

Legend

  • E = Estimated
  • M = Missing
  • NA = Not Available
  • ‡ = Partner data that is not subject to review by the National Climate Archives
Date modified: